TimeCST,TemperatureF,Dew PointF,Humidity,Sea Level PressureIn,VisibilityMPH,Wind Direction,Wind SpeedMPH,Gust SpeedMPH,PrecipitationIn,Events,Conditions,WindDirDegrees,DateUTC
12:15 AM,47.3,19.4,33,29.76,10.0,WSW,9.2,-,N/A,,Clear,250,2012-01-22 06:15:00
12:35 AM,50.7,17.2,27,29.76,10.0,WSW,9.2,-,N/A,,Clear,240,2012-01-22 06:35:00
12:55 AM,52.2,15.4,23,29.74,10.0,SSW,10.4,-,N/A,,Clear,210,2012-01-22 06:55:00
1:15 AM,54.0,14.5,21,29.74,10.0,SSW,10.4,-,N/A,,Clear,200,2012-01-22 07:15:00
1:35 AM,50.5,16.0,25,29.73,10.0,SSW,8.1,-,N/A,,Clear,210,2012-01-22 07:35:00
1:55 AM,50.2,16.2,26,29.72,10.0,SSW,11.5,16.1,N/A,,Clear,200,2012-01-22 07:55:00
2:15 AM,56.3,15.1,20,29.72,10.0,SW,11.5,-,N/A,,Clear,220,2012-01-22 08:15:00
2:35 AM,57.2,15.1,19,29.72,10.0,SW,8.1,-,N/A,,Clear,220,2012-01-22 08:35:00
2:55 AM,57.6,16.0,20,29.72,10.0,SW,10.4,-,N/A,,Clear,220,2012-01-22 08:55:00
3:15 AM,57.9,16.9,20,29.71,10.0,South,5.8,-,N/A,,Clear,190,2012-01-22 09:15:00
3:35 AM,55.9,17.4,22,29.71,10.0,Calm,Calm,-,N/A,,Clear,0,2012-01-22 09:35:00
3:55 AM,56.1,17.6,22,29.72,10.0,Calm,Calm,-,N/A,,Clear,0,2012-01-22 09:55:00
4:15 AM,56.8,17.1,21,29.72,10.0,WSW,21.9,28.8,N/A,,Clear,250,2012-01-22 10:15:00
4:35 AM,63.3,14.5,15,29.70,10.0,SW,17.3,27.6,N/A,,Clear,220,2012-01-22 10:35:00
4:55 AM,63.7,14.0,15,29.71,10.0,SSW,16.1,23.0,N/A,,Clear,210,2012-01-22 10:55:00
5:15 AM,62.8,13.8,15,29.70,10.0,SSW,13.8,-,N/A,,Clear,200,2012-01-22 11:15:00
5:55 AM,59.7,13.8,17,29.71,10.0,SE,4.6,-,N/A,,Clear,140,2012-01-22 11:55:00
6:15 AM,59.5,14.4,17,29.72,10.0,SW,6.9,-,N/A,,Clear,220,2012-01-22 12:15:00
6:55 AM,63.9,13.3,14,29.75,10.0,West,11.5,26.5,N/A,,Clear,260,2012-01-22 12:55:00
7:15 AM,61.5,12.7,15,29.75,10.0,WSW,18.4,24.2,N/A,,Clear,250,2012-01-22 13:15:00
7:35 AM,62.4,11.3,14,29.75,10.0,SW,16.1,-,N/A,,Clear,230,2012-01-22 13:35:00
7:55 AM,62.8,10.0,13,29.75,10.0,SW,18.4,28.8,N/A,,Clear,230,2012-01-22 13:55:00
8:15 AM,63.0,9.1,12,29.77,10.0,WSW,12.7,20.7,N/A,,Clear,240,2012-01-22 14:15:00
8:35 AM,62.2,10.0,13,29.78,10.0,WSW,18.4,27.6,N/A,,Clear,250,2012-01-22 14:35:00
8:55 AM,61.9,12.9,15,29.84,5.0,NW,17.3,28.8,N/A,,Haze,310,2012-01-22 14:55:00
9:15 AM,61.2,13.8,16,29.85,7.0,NNW,12.7,20.7,N/A,,Clear,330,2012-01-22 15:15:00
9:35 AM,61.7,17.4,18,29.87,7.0,WNW,19.6,26.5,N/A,,Clear,290,2012-01-22 15:35:00
9:55 AM,62.2,19.6,19,29.90,10.0,NW,16.1,27.6,N/A,,Clear,310,2012-01-22 15:55:00
10:15 AM,62.1,21.2,21,29.89,10.0,West,27.6,40.3,N/A,,Clear,270,2012-01-22 16:15:00
10:35 AM,62.6,20.5,20,29.92,7.0,WNW,26.5,41.4,N/A,,Clear,300,2012-01-22 16:35:00
10:55 AM,63.0,18.5,18,29.92,10.0,West,29.9,49.5,N/A,,Clear,270,2012-01-22 16:55:00
11:15 AM,63.3,17.1,17,29.93,10.0,West,29.9,38.0,N/A,,Clear,270,2012-01-22 17:15:00
11:35 AM,64.0,14.2,14,29.92,10.0,West,28.8,40.3,N/A,,Clear,270,2012-01-22 17:35:00
12:15 PM,65.5,10.9,12,29.91,10.0,West,27.6,36.8,N/A,,Clear,270,2012-01-22 18:15:00
12:35 PM,66.4,9.5,11,29.90,10.0,West,27.6,34.5,N/A,,Clear,270,2012-01-22 18:35:00
12:55 PM,66.6,9.1,11,29.88,10.0,West,28.8,40.3,N/A,,Clear,280,2012-01-22 18:55:00
1:15 PM,67.1,9.1,10,29.88,10.0,West,25.3,40.3,N/A,,Clear,270,2012-01-22 19:15:00
1:35 PM,67.3,8.2,10,29.88,10.0,West,28.8,36.8,N/A,,Clear,260,2012-01-22 19:35:00
1:55 PM,66.9,8.1,10,29.87,10.0,West,29.9,35.7,N/A,,Clear,270,2012-01-22 19:55:00
2:15 PM,67.5,7.3,10,29.86,10.0,West,27.6,39.1,N/A,,Clear,270,2012-01-22 20:15:00
2:35 PM,67.6,7.3,9,29.86,10.0,West,28.8,36.8,N/A,,Clear,270,2012-01-22 20:35:00
2:55 PM,67.6,6.8,9,29.86,10.0,West,25.3,38.0,N/A,,Clear,280,2012-01-22 20:55:00
3:15 PM,67.5,7.2,9,29.86,10.0,West,21.9,33.4,N/A,,Clear,280,2012-01-22 21:15:00
3:35 PM,67.3,7.9,10,29.87,10.0,West,21.9,28.8,N/A,,Clear,270,2012-01-22 21:35:00
3:55 PM,67.5,8.8,10,29.88,10.0,West,20.7,28.8,N/A,,Clear,270,2012-01-22 21:55:00
4:15 PM,67.5,9.5,10,29.88,10.0,West,20.7,26.5,N/A,,Clear,270,2012-01-22 22:15:00
4:35 PM,67.3,9.7,11,29.89,10.0,West,20.7,25.3,N/A,,Clear,270,2012-01-22 22:35:00
4:55 PM,66.2,8.4,10,29.89,10.0,West,21.9,26.5,N/A,,Clear,270,2012-01-22 22:55:00
5:15 PM,65.5,8.4,11,29.89,10.0,West,24.2,32.2,N/A,,Clear,260,2012-01-22 23:15:00
5:35 PM,64.6,8.8,11,29.90,10.0,West,21.9,-,N/A,,Clear,270,2012-01-22 23:35:00
5:55 PM,63.5,8.6,12,29.90,10.0,West,23.0,27.6,N/A,,Clear,260,2012-01-22 23:55:00
6:15 PM,62.1,8.6,12,29.92,10.0,West,18.4,23.0,N/A,,Clear,270,2012-01-23 00:15:00
6:35 PM,60.6,8.6,13,29.93,10.0,West,12.7,-,N/A,,Clear,260,2012-01-23 00:35:00
6:55 PM,59.2,8.8,14,29.93,10.0,West,13.8,-,N/A,,Clear,260,2012-01-23 00:55:00
7:15 PM,57.0,9.3,15,29.95,10.0,West,12.7,-,N/A,,Clear,260,2012-01-23 01:15:00
7:35 PM,55.8,9.7,16,29.96,10.0,West,12.7,-,N/A,,Clear,260,2012-01-23 01:35:00
7:55 PM,54.9,10.4,17,29.96,10.0,West,10.4,-,N/A,,Clear,270,2012-01-23 01:55:00
8:15 PM,54.0,11.1,18,29.98,10.0,West,8.1,-,N/A,,Clear,260,2012-01-23 02:15:00
8:35 PM,53.8,10.8,18,29.98,10.0,West,10.4,-,N/A,,Clear,260,2012-01-23 02:35:00
8:55 PM,52.9,10.9,19,29.98,10.0,West,13.8,-,N/A,,Clear,270,2012-01-23 02:55:00
9:15 PM,52.0,11.7,20,29.99,10.0,West,11.5,-,N/A,,Clear,260,2012-01-23 03:15:00
9:35 PM,50.5,12.0,21,30.00,10.0,West,3.5,-,N/A,,Clear,260,2012-01-23 03:35:00
9:55 PM,48.9,12.0,23,30.00,10.0,Calm,Calm,-,N/A,,Clear,0,2012-01-23 03:55:00
10:15 PM,46.6,12.4,25,30.00,10.0,West,6.9,-,N/A,,Clear,260,2012-01-23 04:15:00
10:35 PM,46.8,12.9,26,30.01,10.0,North,10.4,-,N/A,,Clear,350,2012-01-23 04:35:00
10:55 PM,48.4,12.2,23,30.03,10.0,NNW,6.9,-,N/A,,Clear,340,2012-01-23 04:55:00
11:15 PM,45.7,12.7,26,30.02,10.0,NW,9.2,-,N/A,,Clear,310,2012-01-23 05:15:00
11:35 PM,42.8,13.8,31,30.03,10.0,Calm,Calm,-,N/A,,Clear,0,2012-01-23 05:35:00